This is the latest recevied weather packets stored in our database for station/object KC5DAQ-27. If no packets are shown the sender has not sent any weather packets the latest 10 day(s).
| Time | Temp. | Humidity | Pressure | Rain* | Wind** | Luminosity | Snow |
|---|---|---|---|---|---|---|---|
| 1778249827 | 19.44° C | 90% | 1004.7 hPa | 0 mm | - | 255 W/m² | - |
| 1778249768 | 19.44° C | 90% | 1004.6 hPa | 0 mm | - | 257 W/m² | - |
| 1778249707 | 19.44° C | 91% | 1004.6 hPa | 0 mm | - | 246 W/m² | - |
| 1778249647 | 19.44° C | 91% | 1004.6 hPa | 0 mm | - | 209 W/m² | - |
| 1778249587 | 19.44° C | 91% | 1004.6 hPa | 0 mm | - | 183 W/m² | - |
| 1778249527 | 19.44° C | 91% | 1004.7 hPa | 0 mm | - | 174 W/m² | - |
| 1778249467 | 19.44° C | 91% | 1004.7 hPa | 0 mm | - | 164 W/m² | - |
| 1778249407 | 19.44° C | 91% | 1004.7 hPa | 0 mm | - | 144 W/m² | - |
| 1778249347 | 19.44° C | 91% | 1004.6 hPa | 0 mm | - | 123 W/m² | - |
| 1778249287 | 19.44° C | 91% | 1004.6 hPa | 0 mm | - | 118 W/m² | - |
| 1778249226 | 19.44° C | 91% | 1004.7 hPa | 0 mm | - | 165 W/m² | - |
| 1778249166 | 19.44° C | 91% | 1004.6 hPa | 0 mm | - | 188 W/m² | - |
| 1778249107 | 19.44° C | 91% | 1004.7 hPa | 0 mm | - | 149 W/m² | - |
| 1778249046 | 19.44° C | 91% | 1004.7 hPa | 0 mm | - | 111 W/m² | - |
| 1778248987 | 19.44° C | 91% | 1004.7 hPa | 0 mm | - | 90 W/m² | - |
| 1778248928 | 19.44° C | 91% | 1004.7 hPa | 0 mm | - | 79 W/m² | - |
| 1778248866 | 19.44° C | 91% | 1004.7 hPa | 0 mm | - | 84 W/m² | - |
| 1778248807 | 19.44° C | 91% | 1004.7 hPa | 0 mm | - | 86 W/m² | - |
| 1778248746 | 19.44° C | 91% | 1004.8 hPa | 0 mm | - | 84 W/m² | - |
| 1778248687 | 19.44° C | 91% | 1004.7 hPa | 0 mm | - | 84 W/m² | - |
| 1778248626 | 19.44° C | 91% | 1004.7 hPa | 0 mm | - | 83 W/m² | - |
| 1778248566 | 19.44° C | 91% | 1004.5 hPa | 0 mm | - | 86 W/m² | - |
| 1778248503 | 19.44° C | 91% | 1004.5 hPa | 0 mm | - | 93 W/m² | - |
| 1778248442 | 19.44° C | 91% | 1004.5 hPa | 0 mm | - | 98 W/m² | - |
| 1778248385 | 19.44° C | 91% | 1004.5 hPa | 0 mm | - | 102 W/m² | - |
* Rain latest hour (hover to see other rain measurements)
** Current wind speed in m/s (hover to see current wind gust speed)